Skip Page Navigation
NASA JPL Caltech
NASA Logo - Jet Propulsion Laboratory + View the NASA Portal
+ Center for Near-Earth Object Studies
JPL Home Earth Solar System Stars & Galaxies Technology
JPL Solar System Dynamics
BODIES ORBITS EPHEMERIDES TOOLS PHYSICAL DATA DISCOVERY FAQ SITE MAP
JPL Small-Body Database Browser
Search: [ help ]  
376993 (2002 PX129)
Classification: Main-belt Asteroid          SPK-ID: 2376993
Ephemeris | Orbit Diagram | Orbital Elements | Mission Design | Physical Parameters | Discovery Circumstances | Close-Approach Data ]

[ show orbit diagram ]
Orbital Elements at Epoch 2459000.5 (2020-May-31.0) TDB
Reference: JPL 7 (heliocentric ecliptic J2000)
 Element Value Uncertainty (1-sigma)   Units 
e .2780200132699998 7.4679e-08  
a 3.010483721279842 4.6973e-08 au
q 2.173508997140502 2.3624e-07 au
i 1.464947209841285 8.3838e-06 deg
node 313.6115066721184 0.00069049 deg
peri 352.5442783224025 0.0006934 deg
M 159.8567704691392 6.3165e-05 deg
tp 2458153.308898143860
(2018-Feb-03.80889814)
0.00031867 TDB
period 1907.88789097356
5.22
4.4654e-05
1.223e-07
d
yr
n .1886903322271722 4.4162e-09 deg/d
Q 3.847458445419182 6.0033e-08 au
  Orbit Determination Parameters
   # obs. used (total)      57  
   data-arc span      6827 days (18.69 yr)  
   first obs. used      2000-02-05  
   last obs. used      2018-10-15  
   planetary ephem.      DE431  
   SB-pert. ephem.      SB431-N16  
   condition code      0  
   norm. resid. RMS      .52232  
   source      ORB  
   producer      Otto Matic  
   solution date      2018-Oct-31 05:05:43  

Additional Information
 Earth MOID = 1.15856 au 
 Jupiter MOID = 1.42843 au 
 T_jup = 3.189 
[ show covariance matrix ]

Ephemeris | Orbit Diagram | Orbital Elements | Mission Design | Physical Parameters | Discovery Circumstances | Close-Approach Data ]

Physical Parameter Table
Parameter Symbol Value Units Sigma Reference Notes
absolute magnitude H 17.2   n/a MPO460477  

376993 (2002 PX129)          Discovered 2002-Aug-15 by LINEAR at Socorro
Reference: Last Updated: 2013-11-20

[ show close-approach data ]
Ephemeris | Orbit Diagram | Orbital Elements | Mission Design | Physical Parameters | Discovery Circumstances | Close-Approach Data ]
ABOUT SSD CREDITS/AWARDS PRIVACY/COPYRIGHT GLOSSARY LINKS
FirstGov 2020-Aug-05 23:45 UT
(server date/time)  
NASA Home Page
Site Manager:   Ryan S. Park
Webmaster  Alan B. Chamberlin